• In Russia
  • List of Countries
  • For 7 days
  • Water Temperature
  • Satellite Maps
  • Weather Map
  • Weather Widgets
  • user-avatar
    Login

    Hourly Weather Dinagepoor

    Today, 24 September, Sunday

    Time Temperature Precipitation Wind Pressure Humidity
    00:00 +31°C° 0 mm 2 mps 752 mmHg 81%
    01:00 +30°C° 2.6 mm 1 mps 752 mmHg 82%
    02:00 +30°C° 2.6 mm 1 mps 752 mmHg 83%
    03:00 +30°C° 2.6 mm 1 mps 752 mmHg 84%
    04:00 +30°C° 1 mm 1 mps 752 mmHg 84%
    05:00 +30°C° 1 mm 1 mps 752 mmHg 83%
    06:00 +29°C° 0 mm 1 mps 752 mmHg 85%
    07:00 +31°C° 0.4 mm 1 mps 752 mmHg 80%
    08:00 +32°C° 0.4 mm 1 mps 752 mmHg 76%
    09:00 +34°C° 0.4 mm 2 mps 753 mmHg 72%
    10:00 +34°C° 0.4 mm 1 mps 752 mmHg 68%
    11:00 +35°C° 0.4 mm 1 mps 752 mmHg 63%
    12:00 +36°C° 0 mm 1 mps 752 mmHg 59%
    13:00 +36°C° 0 mm 1 mps 752 mmHg 59%
    14:00 +36°C° 0 mm 1 mps 751 mmHg 59%
    15:00 +36°C° 0 mm 1 mps 750 mmHg 58%
    16:00 +35°C° 0 mm 1 mps 750 mmHg 61%
    17:00 +34°C° 0 mm 1 mps 750 mmHg 64%
    18:00 +33°C° 0 mm 1 mps 749 mmHg 67%
    19:00 +33°C° 0 mm 1 mps 750 mmHg 68%
    20:00 +33°C° 0 mm 1 mps 750 mmHg 69%
    21:00 +32°C° 0 mm 1 mps 751 mmHg 70%
    22:00 +32°C° 0 mm 1 mps 751 mmHg 71%
    23:00 +32°C° 0 mm 1 mps 751 mmHg 72%

    Tomorrow, 25 September, Monday

    Time Temperature Precipitation Wind Pressure Humidity
    00:00 +31°C° 0 mm 1 mps 751 mmHg 74%
    01:00 +31°C° 0.2 mm 1 mps 750 mmHg 75%
    02:00 +31°C° 0.2 mm 1 mps 750 mmHg 77%
    03:00 +30°C° 0.2 mm 1 mps 750 mmHg 78%
    04:00 +30°C° 0 mm 1 mps 750 mmHg 79%
    05:00 +30°C° 0 mm 1 mps 750 mmHg 80%
    06:00 +30°C° 0 mm 1 mps 750 mmHg 80%
    07:00 +31°C° 0 mm 1 mps 750 mmHg 76%
    08:00 +32°C° 0 mm 1 mps 751 mmHg 71%
    09:00 +32°C° 0 mm 0 mps 751 mmHg 67%
    10:00 +35°C° 0 mm 1 mps 751 mmHg 63%
    11:00 +36°C° 0 mm 1 mps 751 mmHg 58%
    12:00 +37°C° 0 mm 1 mps 750 mmHg 54%
    13:00 +37°C° 0 mm 1 mps 749 mmHg 55%
    14:00 +36°C° 0 mm 1 mps 749 mmHg 56%
    15:00 +36°C° 0 mm 1 mps 748 mmHg 57%
    16:00 +35°C° 0.1 mm 1 mps 748 mmHg 61%
    17:00 +34°C° 0.1 mm 1 mps 748 mmHg 64%
    18:00 +34°C° 0.1 mm 1 mps 748 mmHg 68%
    19:00 +33°C° 0.1 mm 1 mps 748 mmHg 69%
    20:00 +33°C° 0.1 mm 1 mps 749 mmHg 70%
    21:00 +32°C° 0.1 mm 1 mps 750 mmHg 71%
    22:00 +32°C° 0 mm 1 mps 750 mmHg 72%
    23:00 +32°C° 0 mm 1 mps 750 mmHg 73%

    Day after tomorrow, 26 September, Tuesday

    Time Temperature Precipitation Wind Pressure Humidity
    00:00 +31°C° 0 mm 1 mps 750 mmHg 74%
    01:00 +31°C° 0.4 mm 1 mps 750 mmHg 75%
    02:00 +31°C° 0.4 mm 1 mps 750 mmHg 76%
    03:00 +30°C° 0.4 mm 1 mps 749 mmHg 76%
    04:00 +30°C° 0 mm 1 mps 750 mmHg 77%
    05:00 +30°C° 0 mm 1 mps 750 mmHg 78%
    06:00 +29°C° 0 mm 1 mps 750 mmHg 78%
    07:00 +31°C° 0 mm 1 mps 750 mmHg 74%
    08:00 +32°C° 0 mm 1 mps 751 mmHg 70%
    09:00 +33°C° 0 mm 1 mps 752 mmHg 66%
    10:00 +35°C° 0 mm 1 mps 751 mmHg 61%
    11:00 +36°C° 0 mm 1 mps 751 mmHg 57%
    12:00 +35°C° 0 mm 0 mps 751 mmHg 52%
    13:00 +37°C° 0 mm 1 mps 750 mmHg 51%
    14:00 +37°C° 0 mm 1 mps 749 mmHg 50%
    15:00 +37°C° 0 mm 1 mps 749 mmHg 49%
    16:00 +36°C° 0 mm 1 mps 749 mmHg 52%
    17:00 +35°C° 0 mm 1 mps 749 mmHg 56%
    18:00 +34°C° 0 mm 1 mps 749 mmHg 59%
    19:00 +34°C° 0 mm 1 mps 749 mmHg 60%
    20:00 +33°C° 0 mm 1 mps 750 mmHg 61%
    21:00 +31°C° 0 mm 0 mps 751 mmHg 61%
    22:00 +30°C° 0 mm 0 mps 751 mmHg 63%
    23:00 +30°C° 0 mm 0 mps 751 mmHg 64%

    27 September, Wednesday

    Time Temperature Precipitation Wind Pressure Humidity
    00:00 +30°C° 0 mm 0 mps 751 mmHg 65%
    01:00 +31°C° 0 mm 1 mps 750 mmHg 67%
    02:00 +31°C° 0 mm 1 mps 750 mmHg 69%
    03:00 +30°C° 0 mm 1 mps 749 mmHg 70%
    04:00 +30°C° 0 mm 1 mps 750 mmHg 71%
    05:00 +28°C° 0 mm 0 mps 750 mmHg 72%
    06:00 +28°C° 0 mm 0 mps 750 mmHg 73%
    07:00 +29°C° 0 mm 0 mps 751 mmHg 69%
    08:00 +33°C° 0 mm 1 mps 752 mmHg 65%
    09:00 +34°C° 0 mm 1 mps 752 mmHg 61%
    10:00 +35°C° 0 mm 1 mps 752 mmHg 58%
    11:00 +34°C° 0 mm 0 mps 752 mmHg 54%
    12:00 +35°C° 0 mm 0 mps 751 mmHg 50%
    13:00 +35°C° 0 mm 0 mps 750 mmHg 49%
    14:00 +36°C° 0 mm 0 mps 750 mmHg 48%
    15:00 +36°C° 0 mm 0 mps 749 mmHg 48%
    16:00 +35°C° 0 mm 0 mps 749 mmHg 51%
    17:00 +34°C° 0 mm 0 mps 749 mmHg 54%
    18:00 +35°C° 0 mm 1 mps 749 mmHg 57%
    19:00 +34°C° 0 mm 1 mps 750 mmHg 59%
    20:00 +34°C° 0 mm 1 mps 750 mmHg 60%
    21:00 +33°C° 0 mm 1 mps 751 mmHg 62%
    22:00 +33°C° 0 mm 1 mps 751 mmHg 64%
    23:00 +33°C° 0 mm 1 mps 751 mmHg 66%

    28 September, Thursday

    Time Temperature Precipitation Wind Pressure Humidity
    00:00 +32°C° 0 mm 1 mps 751 mmHg 68%
    01:00 +32°C° 0.7 mm 1 mps 750 mmHg 70%
    02:00 +31°C° 0.7 mm 1 mps 750 mmHg 73%
    03:00 +31°C° 0.7 mm 1 mps 749 mmHg 75%
    04:00 +31°C° 0.2 mm 1 mps 750 mmHg 76%
    05:00 +30°C° 0.2 mm 1 mps 750 mmHg 77%
    06:00 +28°C° 0.2 mm 0 mps 750 mmHg 78%
    07:00 +31°C° 1 mm 1 mps 751 mmHg 75%
    08:00 +32°C° 1 mm 1 mps 752 mmHg 71%
    09:00 +33°C° 1 mm 1 mps 752 mmHg 68%
    10:00 +35°C° 1.1 mm 2 mps 752 mmHg 65%
    11:00 +35°C° 1.1 mm 2 mps 752 mmHg 62%
    12:00 +36°C° 1.1 mm 2 mps 751 mmHg 59%
    13:00 +36°C° 0.2 mm 2 mps 751 mmHg 60%
    14:00 +35°C° 0.2 mm 1 mps 750 mmHg 61%
    15:00 +34°C° 0.2 mm 1 mps 749 mmHg 62%
    16:00 +34°C° 0 mm 1 mps 749 mmHg 65%
    17:00 +33°C° 0 mm 1 mps 750 mmHg 68%
    18:00 +32°C° 0 mm 1 mps 750 mmHg 71%
    19:00 +32°C° 0 mm 1 mps 750 mmHg 73%
    20:00 +31°C° 0 mm 1 mps 751 mmHg 74%
    21:00 +31°C° 0 mm 1 mps 751 mmHg 76%
    22:00 +30°C° 0.1 mm 1 mps 751 mmHg 77%
    23:00 +30°C° 0.1 mm 1 mps 751 mmHg 79%

    29 September, Friday

    Time Temperature Precipitation Wind Pressure Humidity
    00:00 +30°C° 0.1 mm 1 mps 751 mmHg 80%
    01:00 +30°C° 0.1 mm 1 mps 750 mmHg 81%
    02:00 +29°C° 0.1 mm 1 mps 750 mmHg 82%
    03:00 +29°C° 0.1 mm 1 mps 750 mmHg 83%
    04:00 +29°C° 0.8 mm 1 mps 750 mmHg 84%
    05:00 +29°C° 0.8 mm 1 mps 750 mmHg 84%
    06:00 +29°C° 0.8 mm 1 mps 750 mmHg 85%
    07:00 +30°C° 0.1 mm 1 mps 751 mmHg 80%
    08:00 +31°C° 0.1 mm 1 mps 751 mmHg 76%
    09:00 +32°C° 0.1 mm 2 mps 752 mmHg 71%
    10:00 +34°C° 0.5 mm 2 mps 752 mmHg 67%
    11:00 +35°C° 0.5 mm 2 mps 751 mmHg 63%
    12:00 +36°C° 0.5 mm 2 mps 751 mmHg 59%
    13:00 +35°C° 2.4 mm 2 mps 750 mmHg 62%
    14:00 +34°C° 2.4 mm 3 mps 750 mmHg 66%
    15:00 +34°C° 2.4 mm 4 mps 749 mmHg 70%
    16:00 +33°C° 0.1 mm 3 mps 749 mmHg 75%
    17:00 +31°C° 0.1 mm 3 mps 749 mmHg 79%
    18:00 +30°C° 0.1 mm 3 mps 750 mmHg 84%
    19:00 +29°C° 0 mm 2 mps 750 mmHg 84%
    20:00 +29°C° 0 mm 2 mps 751 mmHg 85%
    21:00 +29°C° 0 mm 2 mps 751 mmHg 86%
    22:00 +29°C° 0 mm 2 mps 751 mmHg 87%
    23:00 +28°C° 0 mm 2 mps 751 mmHg 87%
    Show more